This is the latest recevied weather packets stored in our database for station/object IW3HBX-3. If no packets are shown the sender has not sent any weather packets the latest 1 day(s).
| Time | Temp. | Humidity | Pressure | Rain* | Wind** | Luminosity | Snow |
|---|---|---|---|---|---|---|---|
| 1788584956 | 21.67° C | 90% | 1016.1 hPa | 0 mm | - | 24 W/m² | - |
| 1788584656 | 21.67° C | 91% | 1016.2 hPa | 0 mm | - | 20 W/m² | - |
| 1788584400 | 21.67° C | 91% | 1016.1 hPa | 0 mm | - | 15 W/m² | - |
| 1788584355 | 21.67° C | 91% | 1016.1 hPa | 0 mm | - | 15 W/m² | - |
| 1788584056 | 21.11° C | 91% | 1016.3 hPa | 0 mm | - | 12 W/m² | - |
| 1788583755 | 21.11° C | 92% | 1016.2 hPa | 0 mm | - | 8 W/m² | - |
| 1788583455 | 21.11° C | 92% | 1016.3 hPa | 0 mm | - | 6 W/m² | - |
| 1788583155 | 21.11° C | 92% | 1016.1 hPa | 0 mm | - | 4 W/m² | - |
| 1788582855 | 21.11° C | 92% | 1016.1 hPa | 0 mm | - | 2 W/m² | - |
| 1788582555 | 21.11° C | 94% | 1016.2 hPa | 0 mm | - | 1 W/m² | - |
| 1788582255 | 21.11° C | 94% | 1016.4 hPa | 0 mm | - | 0 W/m² | - |
| 1788581955 | 21.11° C | 94% | 1016.4 hPa | 0 mm | - | 0 W/m² | - |
| 1788581655 | 21.11° C | 94% | 1016.4 hPa | 0 mm | - | 0 W/m² | - |
| 1788581355 | 21.11° C | 92% | 1016.4 hPa | 0 mm | - | 0 W/m² | - |
| 1788581055 | 21.11° C | 92% | 1016.3 hPa | 0 mm | - | 0 W/m² | - |
| 1788580754 | 21.11° C | 92% | 1016.4 hPa | 0 mm | - | 0 W/m² | - |
| 1788580455 | 21.11° C | 92% | 1016.4 hPa | 0 mm | - | 0 W/m² | - |
| 1788580201 | 21.11° C | 92% | 1016.4 hPa | 0 mm | - | 0 W/m² | - |
| 1788580154 | 21.11° C | 92% | 1016.4 hPa | 0 mm | - | 0 W/m² | - |
| 1788579854 | 21.11° C | 92% | 1016.4 hPa | 0 mm | - | 0 W/m² | - |
| 1788579554 | 21.11° C | 92% | 1016.3 hPa | 0 mm | - | 0 W/m² | - |
| 1788579254 | 21.11° C | 92% | 1016.4 hPa | 0 mm | - | 0 W/m² | - |
| 1788578954 | 21.11° C | 92% | 1016.5 hPa | 0 mm | - | 0 W/m² | - |
| 1788578654 | 21.11° C | 92% | 1016.6 hPa | 0 mm | - | 0 W/m² | - |
| 1788578354 | 21.11° C | 92% | 1016.4 hPa | 0 mm | - | 0 W/m² | - |
* Rain latest hour (hover to see other rain measurements)
** Current wind speed in m/s (hover to see current wind gust speed)